Regional Weather Roundup
Issued by NWS Upton, NY

Current Version | Previous Version | Text Only | Print | Product List | Glossary On
Versions: 1 2 3 4 5 6 7 8 9 10 11 12 13 14 15 16 17 18 19 20 21 22 23 24 25 26 27
000
ASUS41 KOKX 200108
RWROKX

Regional Weather Roundup
National Weather Service New York NY
800 PM EST FRI JAN 19 2018

Note: "FAIR" indicates few or no clouds below 12,000 feet with no
significant weather and/or obstructions to visibility.

NYZ071-072-176-178-NJZ106-104-200200-
New York City Metro Area

CITY           SKY/WX    TMP DP  RH WIND       PRES   REMARKS
Central Park   FAIR      39  18  42 SW7G17    30.00S WCI  34
Bronx Bot Gard   N/A     37  19  48 W8        30.01R WCI  31
Bronx Lehman C   N/A     37  19  48 SW6         N/A  WCI  33
LaGuardia Arpt FAIR      39  18  42 SW9       29.99R WCI  33
Queens College   N/A     37  19  48 SW8         N/A  WCI  31
Kennedy Intl   FAIR      32  23  69 SW6       30.00F WCI  26
Breezy Point     N/A     36 N/A N/A SW6         N/A  WCI  31
Brooklyn Coll    N/A     37  21  52 SW6         N/A  WCI  33
Staten Island    N/A     36  21  55 SW5         N/A  WCI  32
Newark/Liberty FAIR      34  18  52 SW8       29.99S WCI  27
Teterboro      FAIR      33  18  53 CALM      29.98S
$$

NYZ177-179-078>081-200200-
Long Island New York

CITY           SKY/WX    TMP DP  RH WIND       PRES   REMARKS
Jones Beach      N/A     36 N/A N/A W9          N/A  WCI  29
Wantagh          N/A     32  25  74 SW5         N/A  WCI  27
Matinecock Pt    N/A     36 N/A N/A SW10        N/A  WCI  28
Farmingdale    FAIR      30  19  63 S5        29.99S WCI  25
MacArthur/ISP  FAIR      28  18  66 CALM      29.99R
Shirley        FAIR      26  19  74 CALM      30.00S
Mt Sinai Harb    N/A    N/A N/A N/A S5          N/A
Westhampton    FAIR      21  14  74 CALM      30.01R
East Hampton   FAIR      22  17  81 CALM      29.99S
Southold         N/A     30  19  64 W2          N/A
Montauk          N/A     34  22  61 SW6       30.00R WCI  29
$$

NYZ052-065-067-200200-
Hudson Valley

CITY           SKY/WX    TMP DP  RH WIND       PRES   REMARKS
White Plains   FAIR      32  18  56 W5        29.96R WCI  27
Larchmont Harb   N/A     37 N/A N/A SW12        N/A  WCI  30
Croton On Huds   N/A    N/A N/A N/A SE2         N/A
Somers           N/A     30  18  59 S5          N/A  WCI  25
Brewster         N/A     25  18  74 CALM        N/A
Newburgh       CLEAR     23  18  80 CALM      29.95S
Montgomery     FAIR      17  12  80 CALM      29.94R
Otisville        N/A     21  18  86 S1          N/A
Warwick          N/A     21  16  79 NE2         N/A
Suffern          N/A     30  19  64 S2          N/A
Poughkeepsie   FAIR      22  16  78 CALM      29.96R
Albany         MOCLDY    22  15  75 CALM      29.93F
$$

NJZ001-105-106-008-010-013-015-019>022-104-200200-
New Jersey

CITY           SKY/WX    TMP DP  RH WIND       PRES   REMARKS
Newark/Liberty FAIR      34  18  52 SW8       29.99S WCI  27
Teterboro      FAIR      33  18  53 CALM      29.98S
Caldwell       FAIR      31  18  58 CALM      29.99R
Somerville     FAIR      25  20  81 CALM      29.98S
Linden         FAIR      36  18  48 CALM      30.00R
Perth Amboy      N/A     37 N/A N/A W5          N/A  WCI  34
Sussex         FAIR      27  18  69 CALM      29.95R
Andover          N/A     21  18  88 CALM      29.95S
Trenton        FAIR      35  19  52 SW5       29.99S WCI  31
Millville      FAIR      34  23  64 S3        30.04S
Atlantic City  FAIR      35  20  54 S6        30.04S WCI  30
Wrightstown    FAIR      35  19  53 SW7       29.98F WCI  29
Toms River     FAIR      28  21  75 CALM      30.03S
Belmar         FAIR      36  18  48 SW6       30.01S WCI  31
$$

PAZ047>061-062-071-200200-
Eastern Pennsylvania

CITY           SKY/WX    TMP DP  RH WIND       PRES   REMARKS
Philadelphia   FAIR      39  20  46 SW9       30.03S WCI  33
Allentown      FAIR      30  17  58 SW6       29.98S WCI  24
Scranton       FAIR      32  19  58 SW6       29.92S WCI  26
$$

CTZ002-004>006-009-010-012-RIZ004-006-007-MAZ004-011-015-200200-
Southern New England

 In CT

CITY           SKY/WX    TMP DP  RH WIND       PRES   REMARKS
Bradley Intl   FAIR      29  18  63 SW5       29.96R WCI  24
Hartford       FAIR      28  20  71 S5        29.98R WCI  23
Danbury        FAIR      21  17  84 CALM      29.97S
Wtrbury/Oxford FAIR      22  15  75 S3        29.95S
Norwalk Harbor   N/A    N/A N/A N/A W1          N/A
Bridgeport     FAIR      32  25  75 CALM      29.99S
Meriden        FAIR      21  17  84 CALM      29.98S
New Haven      FAIR      31  23  72 S3        29.98S
Chester        FAIR      28  19  69 SW6       29.97R WCI  22
Groton         FAIR      32  22  66 W6        29.99R WCI  26
Willimantic    FAIR      29  17  61 SW3       29.97R

 In RI

CITY           SKY/WX    TMP DP  RH WIND       PRES   REMARKS
Providence     FAIR      31  20  63 W9        29.97R WCI  23
Block Island   FAIR      33  21  61 W12       29.99  WCI  24
Westerly       FAIR      32  23  69 W3        29.99R

In MA

CITY           SKY/WX    TMP DP  RH WIND       PRES   REMARKS
Boston         CLOUDY    33  21  61 W12       29.95R WCI  24
Worcester      CLOUDY    27  17  66 SW7       29.90R WCI  19
Westfield      FAIR      25  18  74 S6        29.94S WCI  18
Provincetown   FAIR      28  23  81 SW5         N/A  WCI  23
Nantucket      FAIR      30  25  81 W9        29.96S WCI  22
$$

ANZ330-335-338-340-345-350-353-355-200200-
Coastal Marine Observations


STATION/POSITION TIME  SKY/WX   TEMP    WIND        PRES    VSBY  WAVE
                                AIR SEA DIR/SP/G                  HT/PER
                 (UTC)          (F)     (DEG/KT/KT) (MB)    (MI)  (FT/S)
NY Harb Entrance 2350            41 40  250/  8/ 10 1015.6          2/ 9
20 S Fire Island 2350            41 42  260/  8/ 10 1016.1          3/ 4
15 E Barnegat Li 0030               43                N/A           3/11
Hudson Canyon    2350            45 48  260/ 19/ 23 1016.0          5/ 5
Kings Point      0030            38 32  260/  8/  9 1016.3
Execution Rocks  NOT AVBL
Western LI Sound NOT AVBL
Central LI Sound 0045            34     210/  8/ 10   N/A           1
Robbins Reef     0030            38     200/  6/  8 1016.2
$$


>>>>>>>>>>>>>>>>>>>>>>>>>>>> KEY <<<<<<<<<<<<<<<<<<<<<<<<<<<
>                                                          <
>     SKY/WX - Sky Condition/Present Weather               <
>     TMP    - Temperature in Fahrenheit                   <
>     DP     - Dew Point in Fahrenheit                     <
>     RH     - Relative Humidity in Percent                <
>     WIND   - Direction (from) and Speed in MPH           <
>     PRES   - Mean Sea Level Pressure (inches of Hg)      <
>     WCI    - Wind Chill Index                            <
>     VSB    - Visibility in Miles                         <
>     HX     - Heat Index                                  <
>     TC     - Temperature in Celsius                      <
>     VRB    - Varibale Wind Direction                     <
>                                                          <
>>>>>>>>>>>>>>>>>>>>>>>>>>>> KEY <<<<<<<<<<<<<<<<<<<<<<<<<<<




USA.gov is the U.S. government's official web portal to all federal, state and local government web resources and services.